Welcome to the New NWS' Forecast!
Most changes are behind the scenes, but click here for differences you might notice.

Regional Weather Roundup (RWR)

Issued by NWS Wilmington, NC (ILM)

                            
000
ASUS42 KILM 200013
RWRILM
RWRILM
REGIONAL HOURLY WEATHER ROUNDUP
NATIONAL WEATHER SERVICE WILMINGTON NC
700 PM EST MON NOV 19 2018
 
NOTE: "FAIR" INDICATES FEW OR NO CLOUDS BELOW 12,000 FEET WITH NO
SIGNIFICANT WEATHER AND/OR OBSTRUCTIONS TO VISIBILITY.
 
...............WFO WILMINGTON COUNTY WARNING AREA...............

......COASTAL NC AND SC COUNTIES......
  
CITY           SKY/WX    TMP DP  RH WIND       PRES   REMARKS
WILMINGTON     FAIR      53  51  93 CALM      30.06R                  
N MYRTLE BEACH FAIR      56  56 100 CALM      30.06R FOG              
MYRTLE BEACH   FAIR      59  58  96 SW5       30.08R                  

......INLAND NC AND SC COUNTIES.......
  
CITY           SKY/WX    TMP DP  RH WIND       PRES   REMARKS
LUMBERTON      FAIR      53  50  89 CALM      30.04S                  
ELIZABETHTOWN  FAIR      55  54  96 S5        30.06R                  
WHITEVILLE     FAIR      55  55  97 CALM      30.05S                  
FLORENCE       FAIR      58  53  84 SW6       30.06R                  
DARLINGTON     FAIR      54  51  90 SW5       30.06R                  
KINGSTREE      NOT AVBL                                               
HARTSVILLE     FAIR      50  50 100 CALM      30.05S                  
BENNETTSVILLE  FAIR      55  52  88 CALM      30.05R                  
CONWAY         NOT AVBL                                               
GEORGETOWN     FAIR      57  55  94 CALM      30.08R                  
MARION         FAIR      55  52  88 SW3       30.06S                  
 
....................REST OF NORTH CAROLINA......................

.........EASTERN NC.........
  
CITY           SKY/WX    TMP DP  RH WIND       PRES   REMARKS
CAPE HATTERAS  CLOUDY    57  55  93 VRB6      30.03R                  
JACKSONVILLE   CLOUDY    57  56  96 CALM      30.06S                  
MOREHEAD CITY  FOG       54  54 100 NW5       30.05R VSB 1/2          
KENANSVILLE    FOG       54 N/A N/A S3        30.06S VSB<1/4          
NEW BERN       CLOUDY    54  54 100 CALM      30.06S                  
ELIZABETH CITY FOG       52  51  97 SW3       30.03S VSB 1/4          

.........CENTRAL NC.........
  
CITY           SKY/WX    TMP DP  RH WIND       PRES   REMARKS
RALEIGH DURHAM FAIR      54  49  83 S3        30.03R                  
ROCKY MOUNT    FOG       49  49 100 S3        30.05R VSB 1/4          
ROANOKE RAPIDS NOT AVBL                                               
FAYETTEVILLE   FAIR      54  50  86 S5        30.03S                  
HOFFMAN        PTCLDY    51  48  92 CALM      30.03S                  

.........WESTERN NC.........
  
CITY           SKY/WX    TMP DP  RH WIND       PRES   REMARKS
CHARLOTTE      FAIR      56  51  84 S7        30.04S                  
GREENSBORO     FAIR      54  44  69 S5        30.00S                  
HICKORY        NOT AVBL                                               
BOONE          NOT AVBL                                               
ASHEVILLE      NOT AVBL                                               

.....................REST OF SOUTH CAROLINA.....................

.........EASTERN SC.........
  
CITY           SKY/WX    TMP DP  RH WIND       PRES   REMARKS
CHARLESTON     MOCLDY    63  55  75 CALM      30.08R                  
BEAUFORT MCAS  NOT AVBL                                               
HILTON HEAD    PTCLDY    61  59  94 S5        30.09R                  

.........CENTRAL SC.........
  
CITY           SKY/WX    TMP DP  RH WIND       PRES   REMARKS
COLUMBIA       FAIR      52  52 100 CALM      30.06R                  
ORANGEBURG     FAIR      54  52  93 CALM      30.07R FOG              
SUMTER SHAW    FAIR      55  51  87 CALM      30.06R                  

.........WESTERN SC.........
  
CITY           SKY/WX    TMP DP  RH WIND       PRES   REMARKS
GREENVILLE     NOT AVBL                                               
ROCK HILL      FAIR      55  52  89 S6        30.05S                  
ANDERSON       FAIR      54  47  77 SW5       30.06R                  
CLEMSON        NOT AVBL                                               
GREENWOOD      FAIR      52  50  93 S5        30.07S                  
 

...................COASTAL AND OFFSHORE REPORTS..................

................LOCAL PIERS AND NC RESERVE................

  
STATION/POSITION TIME  SKY/WX   TEMP    WIND        PRES    VSBY
                                AIR SEA DIR/SP/G
                 (UTC)          (F)     (DEG/KT/KT) (MB)    (MI)
JOHNY MRCER PIER 2348            60 66  320/  2/  3 1017.9R
NC RESRV MASNBRO NOT AVBL
OCEAN CREST PIER NOT AVBL
SPRINGMAID  PIER NOT AVBL


................COASTAL AND OFFSHORE BUOYS................

  
STATION/POSITION TIME  SKY/WX   TEMP    WIND        PRES    VSBY
                                AIR SEA DIR/SP/G
                 (UTC)          (F)     (DEG/KT/KT) (MB)    (MI)
DIMNDSHOAL 41025 0000            63 81  350/ 14/ 17 1016.6
CAPE LOOKOUT     0000                   340/  7/  9 1017.7R
ONSLOW BAY 41036 NOT AVBL
ONSLOW BAY 41064 2308            63 74  340/  8/ 12 1016.2R
ONSLOW BAY 41159 0000               74                N/A
WVE H/P(F/S)=  4/10 SWL H/P/D(F/S/D)=  2/120/11

MASNBO INL 41110 0000               64                N/A
WVE H/P(F/S)=  3/11 SWL H/P/D(F/S/D)=  2/140/11

WILM HARBR 41108 0000               65                N/A
WVE H/P(F/S)=  2/11 SWL H/P/D(F/S/D)=  2/130/11

27SE WRITB 41037 2308            62 72  310/  8/ 14 1017.6R
FRYING PAN 41013 0000            63 72  320/  6/  8 1018.1
SUNST NRSH 41024 2308            62 63  170/  4/  6 1017.3F
CAPRS NRSH 41029 2308            64 63  220/  4/  4 1016.9S
EDISTO     41004 2350               78  290/  4/  6 1018.4R
WVE H/P(F/S)=  3/10 SWL H/P/D(F/S/D)=  3/120/10



..........OFFSHORE BUOYS BEYOND 100 NM OFFSHORE...........
.....IN A TRIANGLE---HAT TO BERMUDA TO BAHAMAS TO HAT..... 

  
STATION/POSITION TIME  SKY/WX   TEMP    WIND        PRES    VSBY
                                AIR SEA DIR/SP/G
                 (UTC)          (F)     (DEG/KT/KT) (MB)    (MI)
150E HAT   41001 NOT AVBL
W BERMUDA  41048 NOT AVBL
ATLANTIC S 41049 2350               79  180/  6/  8 1021.2R
WVE H/P(F/S)=  6/16 SWL H/P/D(F/S/D)=  5/ 40/16

E BAHAMAS  41046 2350                   130/  6/  8 1019.0R
WVE H/P(F/S)=  6/ 8 SWL H/P/D(F/S/D)=  5/ 90/ 8

NE BAHAMAS 41047 2350                   190/  6/  8 1017.7R
WVE H/P(F/S)=  6/ 8 SWL H/P/D(F/S/D)=  5/ 60/ 8

120E CANVRL41010 0000            78 81  230/  8/ 12 1018.8

END